Flag for United Kingdom Weather past 2 weeks in Southend-on-Sea, England, United Kingdom

Now
36 °F

Clear.


Feels Like: 30 °F
Forecast: 34 / 45 °F
Wind: 7 mph from West

Location: Southend Airport-On-Sea

Current Time: Jan 25, 2015 at 4:32:39 AM

Latest Report: Jan 25, 2015 at 2:50 AM


Visibility: 10 mi

Pressure: 30.45 "Hg

Humidity: 81%

Dew point: 30 °F

Location of Southend-on-SeaLocation

Historic Weather in Southend-on-Sea — Graph

°F

Southend-on-Sea temperature yesterday

Maximum temperature yesterday: 45 °F (at 12:50 AM)
Minimum temperature yesterday: 36 °F (at 7:50 PM)
Average temperature yesterday: 40 °F

Past Weeks' High & Low Weather Summary

 TemperatureHumidityPressure
High59 °F (Jan 10, 9:50 AM)93% (Jan 18, 3:50 AM)30.45 "Hg (Jan 18, 3:50 AM)
Low23 °F (Jan 20, 6:20 AM)43% (Jan 10, 2:50 PM)29.18 "Hg (Jan 15, 3:50 AM)
Average40 °F77%29.87 "Hg
* Reported Jan 10 2:50 AM — Jan 25 2:50 AM, Southend-on-Sea, Weather by CustomWeather, © 2014

Note: Actual official high and low records may vary slightly from our data, if they occured in-between our weather recording intervals... More about our weather records

Advertising

Southend-on-Sea weather history for previous 24 hours

 ConditionsComfort  
Time TempWeatherWind HumidityBarometerVisibility
2:50 AM
Jan 25
36 °FClear.7 mph81%30.45 "Hg10 mi
1:50 AM36 °FClear.6 mph81%30.45 "Hg10 mi
12:50 AM37 °FClear.8 mph75%30.45 "Hg10 mi
11:20 PM
Jan 24
36 °FClear.8 mph81%30.45 "Hg10 mi
10:50 PM36 °FClear.8 mph81%30.45 "Hg10 mi
9:50 PM36 °FClear.7 mph81%30.42 "Hg10 mi
9:20 PM37 °FClear.7 mph75%30.42 "Hg10 mi
8:50 PM37 °FClear.8 mph75%30.42 "Hg10 mi
8:20 PM37 °FClear.7 mph70%30.42 "Hg10 mi
7:50 PM36 °FClear.7 mph75%30.42 "Hg10 mi
7:20 PM37 °FClear.7 mph75%30.42 "Hg10 mi
6:50 PM39 °FClear.7 mph70%30.42 "Hg10 mi
6:20 PM37 °FClear.7 mph75%30.39 "Hg10 mi
5:50 PM41 °FClear.7 mph70%30.39 "Hg10 mi
5:20 PM41 °FClear.9 mph70%30.39 "Hg10 mi
4:50 PM41 °FClear.10 mph70%30.36 "Hg10 mi
4:20 PM43 °FSunny.12 mph66%30.36 "Hg10 mi
3:50 PM43 °FPassing clouds.13 mph66%30.33 "HgN/A
3:20 PM45 °FPassing clouds.15 mph61%30.33 "HgN/A
2:50 PM45 °FPassing clouds.14 mph61%30.30 "HgN/A
2:20 PM45 °FPassing clouds.15 mph61%30.30 "HgN/A
1:50 PM45 °FPassing clouds.14 mph61%30.30 "HgN/A
1:20 PM45 °FPassing clouds.13 mph66%30.30 "HgN/A
12:50 PM43 °FPassing clouds.14 mph71%30.27 "HgN/A
12:20 PM43 °FPassing clouds.16 mph71%30.27 "HgN/A
11:50 AM43 °FPassing clouds.12 mph66%30.27 "HgN/A
11:20 AM43 °FSunny.12 mph71%30.27 "Hg10 mi
10:50 AM41 °FSunny.14 mph76%30.24 "Hg10 mi
10:20 AM39 °FPassing clouds.13 mph75%30.24 "HgN/A
9:50 AM39 °FPassing clouds.10 mph75%30.24 "HgN/A
9:20 AM39 °FSunny.12 mph75%30.21 "Hg10 mi
8:50 AM37 °FSunny.12 mph81%30.21 "Hg10 mi
8:20 AM37 °FSunny.12 mph81%30.18 "Hg10 mi
7:50 AM39 °FSunny.13 mph75%30.18 "Hg10 mi
7:20 AM37 °FClear.15 mph75%30.15 "Hg10 mi
6:50 AM39 °FClear.13 mph75%30.15 "Hg10 mi
6:20 AM39 °FClear.13 mph81%30.12 "Hg10 mi
5:50 AM39 °FPassing clouds.13 mph81%30.09 "HgN/A
4:50 AM41 °FPassing clouds.13 mph81%30.09 "HgN/A
Weather by CustomWeather, © 2014

See weather overviewHow to use our weather pages